Change the Weather History Date:

Wednesday, December 12, 2012

  Actual Average Record
Temperature  
Mean Temperature 35 °F 29 °F  
Max Temperature 45 °F 36 °F 50 °F (2006)
Min Temperature 25 °F 22 °F -3 °F (2000)
Degree Days  
Heating Degree Days 30 36  
Month to date heating degree days 286 412  
Since 1 July heating degree days 1605 1682  
Cooling Degree Days 0 0  
Month to date cooling degree days 0 0  
Year to date cooling degree days 1228 789  
Moisture  
Dew Point 24 °F    
Average Humidity 63    
Maximum Humidity 81    
Minimum Humidity 40    
Precipitation  
Precipitation 0.00 in 0.05 in 0.43 in (2001)
Month to date precipitation 0.59 0.83  
Year to date precipitation 20.41 32.35  
Sea Level Pressure  
Sea Level Pressure 30.27 in    
Wind  
Wind Speed 10 mph (SSW)    
Max Wind Speed 20 mph    
Max Gust Speed 24 mph    
Visibility 10 miles    
Events      
T = Trace of Precipitation, MM = Missing Value Source: NWS Daily Summary

Daily Weather History Graph

Daily Weather History Graph

Search for Another Location

Airport or City:

Trip Planner

Search our weather history database for the weather conditions in past years. The results will help you decide how hot, cold, wet, or windy it might be!

Date:

Astronomy

Dec. 12, 2012 Rise Set
Actual Time 7:11 AM CST 4:20 PM CST
Civil Twilight 6:39 AM CST 4:51 PM CST
Nautical Twilight 6:04 AM CST 5:26 PM CST
Astronomical Twilight 5:30 AM CST 6:01 PM CST
Moon 6:14 AM CST (12/12) 3:57 PM CST (12/12)
Length of Visible Light 10h 12m
Length of Day
9h 08m
Waning Crescent, 1% of the Moon is Illuminated
Dec 12
Waning Crescent
Dec 13
New
Dec 19
First Quarter
Dec 28
Full
Jan 4
Last Quarter

Hourly Weather History & Observations

Time (CST) Temp. Windchill Dew Point Humidity Pressure Visibility Wind Dir Wind Speed Gust Speed Precip Events Conditions
12:52 AM 30.0 °F 23.2 °F 21.9 °F 72% 30.18 in 10.0 mi SW 6.9 mph - N/A   Scattered Clouds
1:52 AM 30.0 °F 25.2 °F 21.9 °F 72% 30.20 in 10.0 mi SW 4.6 mph - N/A   Clear
2:52 AM 28.9 °F 22.8 °F 21.9 °F 75% 30.22 in 10.0 mi SSW 5.8 mph - N/A   Clear
3:52 AM 28.0 °F 20.8 °F 21.9 °F 78% 30.22 in 10.0 mi SSW 6.9 mph - N/A   Clear
4:52 AM 27.0 °F 21.6 °F 21.0 °F 78% 30.22 in 10.0 mi South 4.6 mph - N/A   Clear
5:52 AM 28.0 °F 21.7 °F 21.0 °F 75% 30.25 in 10.0 mi SSW 5.8 mph - N/A   Clear
6:52 AM 25.0 °F 19.3 °F 19.9 °F 81% 30.27 in 10.0 mi South 4.6 mph - N/A   Clear
7:52 AM 28.9 °F 22.8 °F 21.9 °F 75% 30.27 in 10.0 mi South 5.8 mph - N/A   Clear
8:52 AM 32.0 °F 25.6 °F 23.0 °F 69% 30.29 in 10.0 mi SSW 6.9 mph - N/A   Clear
9:52 AM 37.0 °F 29.3 °F 23.0 °F 57% 30.31 in 10.0 mi SSW 11.5 mph - N/A   Clear
10:52 AM 41.0 °F 34.7 °F 21.9 °F 47% 30.31 in 10.0 mi SSW 10.4 mph 18.4 mph N/A   Clear
11:52 AM 43.0 °F 36.8 °F 21.9 °F 43% 30.30 in 10.0 mi South 11.5 mph - N/A   Clear
12:52 PM 45.0 °F 38.5 °F 21.9 °F 40% 30.29 in 10.0 mi SSW 13.8 mph 21.9 mph N/A   Clear
1:52 PM 45.0 °F 37.9 °F 23.0 °F 42% 30.26 in 10.0 mi SSW 16.1 mph - N/A   Clear
2:52 PM 45.0 °F 37.6 °F 21.9 °F 40% 30.26 in 10.0 mi SSW 17.3 mph 21.9 mph N/A   Clear
3:52 PM 44.1 °F 37.1 °F 23.0 °F 43% 30.27 in 10.0 mi SSW 15.0 mph - N/A   Clear
4:52 PM 39.9 °F 34.5 °F 25.0 °F 55% 30.27 in 10.0 mi South 8.1 mph - N/A   Clear
5:52 PM 39.0 °F 31.8 °F 27.0 °F 62% 30.28 in 10.0 mi South 11.5 mph - N/A   Clear
6:52 PM 37.9 °F 30.5 °F 27.0 °F 65% 30.29 in 10.0 mi South 11.5 mph - N/A   Clear
7:52 PM 37.0 °F 29.3 °F 27.0 °F 67% 30.30 in 10.0 mi South 11.5 mph - N/A   Clear
8:52 PM 36.0 °F 28.0 °F 27.0 °F 70% 30.29 in 10.0 mi South 11.5 mph - N/A   Clear
9:52 PM 36.0 °F 28.5 °F 27.0 °F 70% 30.29 in 10.0 mi South 10.4 mph - N/A   Clear
10:52 PM 36.0 °F 28.0 °F 27.0 °F 70% 30.29 in 10.0 mi South 11.5 mph - N/A   Clear
11:52 PM 35.1 °F 27.9 °F 26.1 °F 70% 30.29 in 10.0 mi South 9.2 mph - N/A   Clear